This demonstration page uses our WeatherBlox Daily Observations layout. Learn more.

Left ArrowRight Arrow

44.89941, -97.11507

Hourly Observations for April 5, 2016

Temp ( °F °C ) Dew Point ( °F °C ) Humidity (%) Winds ( mph kmh ) Pressure ( in mb ) Visibility ( mi km ) Precip ( " mm )
12:53 am 00:53 Clear 35 1.7 20 -6.7 54 54 SE 9 15 30.22 1024 10 16 0.00 0.00
1:53 am 01:53 Mostly Clear 36 2.2 21 -6.1 55 55 SE 13 20 30.19 1022 10 16 0.00 0.00
2:53 am 02:53 Mostly Cloudy 36 2.2 22 -5.6 57 57 SSE 14 22 30.15 1021 10 16 0.00 0.00
3:53 am 03:53 Cloudy 38 3.3 22 -5.6 52 52 SE 16 26 30.09 1019 10 16 0.00 0.00
4:53 am 04:53 Mostly Cloudy 38 3.3 25 -3.9 60 60 SSE 18 30 30.08 1019 10 16 0.00 0.00
5:53 am 05:53 Mostly Cloudy 37 2.8 27 -2.8 67 67 SSE 17 28 30.03 1017 10 16 0.00 0.00
6:53 am 06:53 Clear 36 2.2 28 -2.2 73 73 SSE 16 26 30.00 1016 10 16 0.00 0.00
7:53 am 07:53 Mostly Sunny 37 2.8 28 -2.2 70 70 SSE 21 33 29.96 1015 10 16 0.00 0.00
8:53 am 08:53 Sunny 41 5 28 -2.2 60 60 SSE 23 37 29.92 1013 10 16 0.00 0.00
9:53 am 09:53 Mostly Cloudy 42 5.6 29 -1.7 60 60 S 24 39 29.91 1013 10 16 0.00 0.00
10:53 am 10:53 Mostly Cloudy 45 7.2 31 -0.6 58 58 S 26 43 29.88 1012 10 16 0.00 0.00
11:53 am 11:53 Mostly Sunny 51 10.6 32 0 48 48 S 26 43 29.84 1011 10 16 0.00 0.00
12:53 pm 12:53 Sunny 53 11.7 32 0 45 45 SSW 28 44 29.81 1010 10 16 0.00 0.00
1:53 pm 13:53 Sunny 55 12.8 34 1.1 45 45 SSW 26 43 29.78 1009 10 16 0.00 0.00
2:53 pm 14:53 Sunny 58 14.4 35 1.7 42 42 SSW 24 39 29.76 1008 10 16 0.00 0.00
3:53 pm 15:53 Partly Cloudy 62 16.7 37 2.8 40 40 SW 20 31 29.73 1007 10 16 0.00 0.00
4:53 pm 16:53 Partly Cloudy 60 15.6 37 2.8 42 42 WSW 13 20 29.71 1006 10 16 0.00 0.00
5:53 pm 17:53 Sunny 60 15.6 36 2.2 41 41 WNW 8 13 29.71 1006 10 16 0.00 0.00
7:53 pm 19:53 Cloudy 55 12.8 37 2.8 51 51 SW 6 9 29.69 1005 10 16 0.00 0.00
8:53 pm 20:53 Clear 48 8.9 31 -0.6 52 52 SW 8 13 29.68 1005 10 16 0.00 0.00
9:53 pm 21:53 Partly Cloudy 44 6.7 31 -0.6 60 60 SSW 8 13 29.67 1005 10 16 0.00 0.00
10:53 pm 22:53 Mostly Cloudy 52 11.1 26 -3.3 37 37 W 14 22 29.64 1004 10 16 0.00 0.00
11:53 pm 23:53 Cloudy 48 8.9 33 0.6 56 56 W 17 28 29.64 1004 10 16 0.00 0.00

Powered by AerisWeather